Weather History for Manhattan, KS

Change the Weather History Date:

Wednesday, July 10, 2013

  Actual Average Record
Temperature  
Mean Temperature 81 °F 79 °F  
Max Temperature 92 °F 91 °F 100 °F (2000)
Min Temperature 69 °F 67 °F 55 °F (1996)
Degree Days  
Heating Degree Days 0 0  
Month to date heating degree days 0 0  
Since 1 June heating degree days 9 11  
Since 1 July heating degree days 0 0  
Cooling Degree Days 16 14  
Month to date cooling degree days 140 134  
Year to date cooling degree days 594 504  
Since 1 June cooling degree days 458 404  
Growing Degree Days 30 (Base 50)    
Moisture  
Dew Point 67 °F    
Average Humidity 68    
Maximum Humidity 97    
Minimum Humidity 38    
Precipitation  
Precipitation 0.00 in 0.14 in 0.56 in (1998)
Month to date precipitation 0.37 1.46  
Year to date precipitation 13.16 17.75  
Sea Level Pressure  
Sea Level Pressure 29.97 in    
Wind  
Wind Speed 8 mph (ENE)    
Max Wind Speed 18 mph    
Max Gust Speed 25 mph    
Visibility 10 miles    
Events Rain , Thunderstorm    
T = Trace of Precipitation, MM = Missing Value Source: NWS Daily Summary

Daily Weather History Graph

Daily Weather History Graph

Search for Another Location

Airport:

Trip Planner

Search our weather history database for the weather conditions in past years. The results will help you decide how hot, cold, wet, or windy it might be!

Date:

Astronomy

Jul. 10, 2013 Rise Set
Actual Time 6:09 AM CDT 8:54 PM CDT
Civil Twilight 5:38 AM CDT 9:25 PM CDT
Nautical Twilight 4:58 AM CDT 10:05 PM CDT
Astronomical Twilight 4:13 AM CDT 10:50 PM CDT
Moon 8:30 AM CDT (7/10) 10:06 PM CDT (7/10)
Length of Visible Light 15h 47m
Length of Day
14h 44m
Waxing Crescent, 5% of the Moon is Illuminated
Jul 10
Waxing Crescent
Jul 15
First Quarter
Jul 22
Full
Jul 29
Last Quarter
Aug 6
New

Hourly Weather History & Observations

Time (CDT) Temp. Heat Index Dew Point Humidity Pressure Visibility Wind Dir Wind Speed Gust Speed Precip Events Conditions
12:06 AM 77.0 °F - 66.2 °F 69% 29.94 in 10.0 mi SW 25.3 mph 35.7 mph 0.00 in Rain , Thunderstorm Light Rain
12:13 AM 78.8 °F - 66.2 °F 65% 29.93 in 10.0 mi South 15.0 mph 35.7 mph 0.00 in Rain , Thunderstorm Light Rain
12:34 AM 78.8 °F - 66.2 °F 65% 29.96 in 10.0 mi West 17.3 mph 26.5 mph 0.00 in   Partly Cloudy
12:52 AM 79.0 °F - 64.9 °F 62% 29.92 in 10.0 mi WSW 12.7 mph 24.2 mph 0.00 in   Partly Cloudy
1:52 AM 80.1 °F 81.7 °F 64.0 °F 58% 29.98 in 10.0 mi NNE 9.2 mph 19.6 mph N/A   Partly Cloudy
2:52 AM 73.9 °F - 66.9 °F 79% 29.91 in 10.0 mi SW 5.8 mph - N/A   Partly Cloudy
3:52 AM 75.0 °F - 64.9 °F 71% 29.92 in 10.0 mi East 3.5 mph - N/A   Clear
4:52 AM 72.0 °F - 66.9 °F 84% 29.94 in 10.0 mi Calm Calm - N/A   Clear
5:52 AM 70.0 °F - 66.9 °F 90% 29.96 in 10.0 mi Calm Calm - N/A   Clear
6:52 AM 70.0 °F - 68.0 °F 93% 29.95 in 10.0 mi Calm Calm - N/A   Clear
7:52 AM 75.0 °F - 68.0 °F 79% 29.98 in 10.0 mi Calm Calm - N/A   Clear
8:52 AM 80.1 °F 83.2 °F 70.0 °F 71% 30.01 in 10.0 mi ENE 5.8 mph - N/A   Clear
9:52 AM 82.0 °F 86.3 °F 71.1 °F 69% 30.01 in 10.0 mi ENE 11.5 mph - N/A   Clear
10:52 AM 84.0 °F 89.0 °F 71.1 °F 65% 30.02 in 10.0 mi East 16.1 mph - N/A   Clear
11:52 AM 87.1 °F 92.8 °F 71.1 °F 59% 30.03 in 10.0 mi NE 17.3 mph 20.7 mph N/A   Scattered Clouds
12:52 PM 88.0 °F 92.1 °F 69.1 °F 53% 30.02 in 10.0 mi East 13.8 mph - N/A   Clear
1:52 PM 90.0 °F 94.5 °F 69.1 °F 50% 30.02 in 10.0 mi ENE 12.7 mph - N/A   Clear
2:52 PM 91.0 °F 93.0 °F 64.9 °F 42% 30.01 in 10.0 mi ENE 12.7 mph - N/A   Clear
3:52 PM 91.9 °F 93.3 °F 64.0 °F 39% 30.01 in 10.0 mi East 10.4 mph - N/A   Clear
4:52 PM 91.0 °F 91.9 °F 63.0 °F 39% 29.99 in 10.0 mi NE 13.8 mph - N/A   Clear
5:52 PM 91.0 °F 91.9 °F 63.0 °F 39% 29.96 in 10.0 mi East 10.4 mph - N/A   Clear
6:52 PM 89.1 °F 91.0 °F 64.9 °F 45% 29.96 in 10.0 mi ENE 8.1 mph - N/A   Clear
7:52 PM 84.9 °F 87.1 °F 66.0 °F 53% 29.96 in 10.0 mi NE 8.1 mph - N/A   Clear
8:52 PM 82.0 °F 84.1 °F 66.0 °F 58% 29.95 in 10.0 mi East 5.8 mph - N/A   Clear
9:52 PM 80.1 °F 82.1 °F 66.0 °F 62% 29.96 in 10.0 mi ENE 8.1 mph - N/A   Clear
10:52 PM 77.0 °F - 64.0 °F 64% 29.99 in 10.0 mi ENE 6.9 mph - N/A   Clear
11:52 PM 73.0 °F - 64.9 °F 76% 30.00 in 10.0 mi East 3.5 mph - N/A   Clear